Presure
150 157 160 183 181 182 168 184 181 187 206 236 256 230 227 182 164 191 164 187 175 156 192 181 152 183 184 185 187 152 182 187 185 183 192 192 195 204 206 208 208 220 256 424
190 182 171 193 175 166 183 187 190 226 259 233 222 186 223 185 179 167 193 186 167 155 170 153 158 173 156 172 186 174 179 165 160 181 173 132 191 182 206 189 212 229 232 264
165 188 179 183 181 185 186 211 231 215 194 174 166 199 167 190 185 168 159 164 179 174 181 181 181 162 178 176 165 176 184 178 156 183 190 158 194 199 195 204 192 216 221 244
193 184 181 199 190 191 216 204 203 175 176 184 174 178 182 178 189 188 162 186 179 168 192 172 178 178 172 173 166 162 183 181 179 186 187 193 133 193 193 160 200 196 224 217
179 187 210 205 212 211 176 207 174 170 192 200 193 159 152 170 170 181 184 179 178 179 180 163 160 172 180 172 176 180 185 186 170 171 193 191 192 170 186 196 177 147 215 209
174 194 175 193 170 205 155 180 176 163 164 172 167 160 169 171 167 180 177 174 170 168 171 176 166 178 179 173 185 157 186 183 184 186 185 178 193 234 223 180 189 202 151 215
183 140 133 182 144 190 164 191 172 153 170 158 149 166 157 152 155 172 163 161 170 171 178 178 174 170 186 188 185 145 164 182 188 184 171 212 236 220 213 136 200 176 189 170
150 156 161 160 149 167 161 168 169 170 158 158 172 166 164 167 157 162 164 164 176 176 185 188 185 180 180 186 200 202 205 217 223 218 222 197 226 238 237 253 170 247 211 182
128 130 155 151 137 131 158 154 128 139 139 155 156 164 162 127 175 169 187 185 183 139 141 117 177 162 214 208 216 220 221 221 225 227 226 232 230 248 241 246 253 178 263 166
152 141 166 132 137 151 140 149 145 137 140 161 175 151 131 166 166 170 183 186 189 204 141 155 160 202 201 210 216 217 213 221 230 230 237 243 182 225 189 216 207 240 160 259
150 124 137 130 144 146 137 153 150 149 133 138 166 174 125 173 154 143 132 114 156 140 148 156 148 214 166 183 165 205 228 223 230 184 212 252 267 263 244 255 242 166 248 222
131 167 164 129 126 126 124 125 119 125 138 177 202 114 164 118 103 172 201 193 103 183 209 124 174 211 159 218 166 242 236 245 236 252 225 251 271 261 255 259 252 262 248 224
150 138 144 124 165 161 118 187 195 195 192 191 188 169 170 85 216 191 197 202 188 108 175 194 203 175 223 239 237 243 258 247 261 266 272 238 260 238 237 254 258 271 279 268
152 165 181 186 160 161 190 197 178 203 185 208 131 207 207 186 180 120 133 156 192 203 215 218 225 168 224 180 108 254 232 244 236 258 196 237 260 258 258 216 271 258 258 267
132 199 182 170 131 144 204 165 185 193 194 199 188 107 194 120 154 193 195 214 224 236 233 239 252 249 134 245 250 252 159 111 119 153 265 251 248 253 262 265 297 319 275 283
175 176 182 187 183 174 186 184 191 189 189 183 182 192 196 198 204 210 213 241 211 242 246 240 234 249 244 247 254 238 217 92 253 267 274 257 272 261 266 249 273 279 294 301
210 210 202 205 167 204 216 219 220 217 204 218 217 189 226 201 158 198 228 242 243 235 244 238 233 254 240 246 256 238 256 283 255 250 270 282 278 279 271 276 267 321 305 299
163 185 217 217 207 240 203 205 204 212 243 262 253 215 240 238 229 234 227 246 219 252 256 256 251 246 246 249 273 159 194 301 271 264 228 293 304 298 327 318 305 282 295 262
170 228 218 213 224 212 171 199 213 220 227 174 219 221 143 143 244 260 260 232 234 265 273 278 251 257 277 301 260 272 279 274 289 275 244 278 279 257 269 274 272 307 296 281
199 208 215 244 213 241 243 235 180 205 212 206 145 152 225 225 251 258 255 249 262 255 243 247 262 262 272 264 262 319 316 250 250 254 299 298 310 278 256 320 316 307 309 310
205 198 207 225 243 207 139 139 215 225 232 206 280 281 273 259 262 278 216 244 266 257 239 241 266 279 257 273 298 257 255 266 320 284 317 321 300 277 265 329 273 257 262 273
199 213 164 171 228 228 239 198 178 202 218 260 273 249 265 269 285 287 280 319 285 278 267 256 192 250 326 321 319 306 275 348 347 210 316 376 372 368 211 368 368 367 363 356
201 202 196 198 238 217 209 252 274 227 272 283 252 272 258 280 176 325 246 249 247 248 343 313 268 272 294 346 308 392 128 394 397 397 397 125 367 394 394 391 392 393 389 385
184 193 210 220 258 246 241 266 274 272 274 283 245 281 245 265 255 255 265 307 299 299 258 329 339 387 382 377 371 473 473 475 478 474 470 463 456 456 458 463 466 474 476 473
228 230 204 227 268 253 191 262 268 321 319 282 304 320 301 299 304 298 313 313 320 385 386 376 366 363 360 424 449 449 443 446 444 444 444 443 443 295 447 290 430 451 179 459
217 251 218 230 270 263 292 301 277 287 297 297 299 280 305 123 80 334 386 378 375 361 363 355 414 457 404 436 130 451 436 429 430 318 439 438 441 142 478 441 461 440 460 102
Wind_Speed
21 27 30 38 39 38 28 41 42 44 44 43 32 27 29 33 30 32 28 29 28 33 29 32 35 31 34 37 38 38 38 38 37 37 42 38 46 47 43 42 41 41 44 29
30 39 35 36 33 31 38 42 41 42 35 33 31 31 29 30 30 30 30 33 35 31 42 36 40 45 37 43 41 39 40 45 44 41 40 32 33 43 48 29 45 42 36 39
24 38 34 35 35 37 38 39 40 33 32 29 25 33 30 33 30 31 31 34 38 41 37 39 38 40 39 42 39 44 43 40 50 43 46 43 41 41 36 47 25 43 34 34
35 34 34 37 38 36 39 33 34 31 31 36 31 34 36 28 29 34 31 39 41 48 41 41 40 40 43 46 49 48 47 46 45 49 47 50 33 37 34 40 32 27 42 30
29 33 37 36 38 36 30 35 28 28 38 38 37 30 28 39 37 35 37 35 37 40 41 47 51 45 47 48 51 53 54 54 49 47 57 52 51 39 47 39 33 32 42 29
22 28 26 31 26 33 23 28 30 30 32 34 35 36 43 41 39 40 38 38 40 44 46 48 49 50 51 52 57 54 59 60 59 59 54 49 54 57 52 41 45 42 30 32
28 19 21 27 23 33 25 36 33 29 38 37 33 44 40 35 38 42 42 43 47 49 53 53 52 51 59 62 62 49 57 62 65 62 49 65 69 59 53 33 47 45 29 35
20 23 26 27 22 31 30 34 35 36 40 43 47 48 51 50 44 45 46 48 54 57 63 65 63 59 62 66 69 70 71 71 73 67 68 61 69 73 66 69 42 50 40 34
17 17 28 27 24 21 36 36 23 33 37 47 54 57 54 23 55 52 58 59 61 41 37 29 61 53 71 73 80 81 80 81 83 84 79 81 75 80 73 68 64 44 52 48
32 28 38 27 29 37 33 42 39 36 39 49 57 51 42 63 52 55 61 64 67 74 48 52 47 72 72 82 87 86 78 84 92 90 89 85 48 64 50 61 59 61 44 52
38 29 40 34 41 43 42 48 48 49 43 46 55 62 39 64 50 48 48 39 55 42 47 56 46 86 56 67 55 79 99 91 90 59 73 91 92 80 74 70 71 53 63 55
41 48 49 41 40 40 42 44 39 42 51 64 72 50 78 25 30 67 74 73 33 63 78 40 61 86 60 94 70 107 97 98 87 94 79 82 89 80 73 72 71 66 68 63
51 53 55 38 54 54 43 68 73 72 70 74 64 69 67 32 89 73 77 80 74 37 65 79 82 79 98 110 103 105 107 97 103 104 102 77 79 77 78 74 74 71 72 65
52 57 61 66 59 59 70 76 70 82 75 83 62 81 90 78 74 48 57 74 84 88 99 101 105 68 97 77 36 110 97 96 89 98 68 79 80 77 77 69 78 73 70 68
52 72 66 66 54 57 83 69 76 79 82 80 76 43 93 43 67 86 89 106 110 114 112 109 114 112 52 109 110 110 70 43 52 62 98 87 80 75 83 82 90 74 75 74
64 66 70 77 73 70 74 82 84 82 83 78 79 84 87 93 101 106 108 115 102 117 117 116 112 119 113 108 114 98 93 39 102 108 109 100 106 93 97 75 85 84 77 73
91 92 89 91 74 90 96 103 96 107 105 108 108 92 113 101 87 104 115 121 122 115 122 116 109 126 113 116 119 105 112 124 100 93 108 116 115 117 98 90 87 78 78 76
77 88 96 94 88 94 94 99 101 107 97 99 110 104 119 119 114 117 112 124 108 128 130 129 127 122 120 119 131 68 88 123 121 109 85 98 106 100 81 81 81 83 77 75
87 99 101 100 100 97 85 96 107 113 113 97 113 112 73 71 112 120 125 119 122 124 125 131 126 126 134 129 123 123 118 110 117 108 95 106 94 82 87 87 85 83 83 79
100 108 109 100 110 102 95 106 95 113 113 108 79 85 119 115 123 118 126 131 129 129 122 126 132 127 124 120 116 109 106 100 96 91 98 98 97 95 85 90 88 85 82 81
107 97 112 111 109 94 50 61 109 114 107 105 116 116 116 119 124 117 89 111 125 127 122 117 121 113 114 112 113 108 104 108 108 107 105 103 101 99 93 96 89 85 84 83
100 115 98 98 116 113 114 100 96 104 124 115 114 110 116 116 118 119 114 114 113 113 116 116 87 111 114 115 113 109 109 104 102 60 88 95 95 94 59 92 91 92 91 89
119 123 102 115 115 127 122 122 125 128 121 122 113 112 115 116 72 114 112 110 111 114 110 113 114 112 116 111 79 94 39 91 89 88 87 48 80 83 82 82 82 82 82 82
91 102 121 128 124 127 120 130 132 130 130 131 121 123 116 118 116 116 116 114 114 116 106 117 114 94 93 93 94 58 57 55 54 55 54 56 59 59 59 60 60 59 57 58
128 115 116 114 134 129 87 131 131 124 122 122 122 118 120 122 121 122 118 118 118 95 91 95 97 96 94 68 55 54 56 55 58 58 58 59 60 44 56 43 53 54 31 56
122 133 123 122 136 132 129 126 119 119 123 124 122 117 120 38 22 114 94 94 94 90 93 94 67 53 49 54 34 49 52 57 59 48 59 60 61 32 52 53 47 48 48 28
Wind_Direction
250 262 272 247 255 262 271 270 275 278 284 290 284 276 276 272 281 283 273 279 284 277 275 271 290 286 289 288 292 290 292 300 303 301 311 310 317 325 324 337 340 343 357 223
236 244 264 253 271 261 270 271 279 286 280 282 275 276 273 280 282 275 282 275 275 281 278 290 291 280 287 288 298 278 294 282 285 297 295 284 304 297 322 308 334 340 345 359
262 246 262 268 269 272 273 284 284 280 281 279 280 278 274 278 276 273 277 281 272 271 278 289 281 284 285 285 290 287 293 286 283 293 302 279 306 313 313 318 317 333 333 347
249 264 269 268 272 273 282 280 281 279 285 284 281 288 288 279 280 274 286 274 271 277 292 273 283 285 280 283 281 283 293 289 290 296 297 302 283 301 298 288 311 322 330 327
260 269 273 273 278 281 267 276 276 273 280 281 289 279 279 284 280 278 280 278 280 282 286 271 277 279 286 282 290 293 298 296 276 281 299 299 301 277 298 303 286 289 318 316
253 267 264 270 263 273 261 279 278 281 279 284 279 286 281 282 285 285 285 283 280 279 280 282 278 286 287 283 295 281 295 292 291 293 293 289 299 307 307 289 299 301 280 306
261 246 255 273 262 276 269 282 269 280 275 280 289 279 284 287 288 284 281 284 284 284 287 287 284 284 295 297 294 288 288 292 292 292 294 298 311 301 299 259 300 288 280 286
249 255 258 261 274 268 267 269 269 271 280 280 282 280 283 284 281 282 286 286 290 290 294 295 293 290 291 291 294 293 294 302 305 300 302 300 304 308 305 310 272 303 285 277
265 275 267 279 289 278 280 279 284 291 295 279 284 284 283 292 285 287 292 292 294 295 293 276 294 288 301 298 302 303 304 306 307 306 304 305 301 304 303 305 303 272 298 274
278 287 272 279 286 277 284 278 282 288 283 277 280 286 299 287 288 288 291 291 293 296 294 294 295 296 296 301 304 304 301 304 305 305 304 304 288 296 282 291 289 292 272 290
282 284 291 294 282 280 288 284 282 278 291 285 288 288 285 286 287 284 283 290 282 285 285 294 294 301 295 295 295 298 301 301 302 296 298 303 303 300 293 291 288 269 285 276
290 275 273 291 290 292 292 292 292 292 287 288 287 283 275 263 255 286 294 288 257 290 299 290 290 300 295 300 292 297 300 299 299 300 296 299 301 298 293 291 285 283 278 273
279 281 285 285 282 281 289 285 287 286 285 285 289 275 281 260 293 286 293 296 293 261 290 295 297 291 300 297 299 298 296 299 301 302 301 288 295 285 283 287 284 283 287 275
281 277 286 286 286 286 288 289 283 291 287 291 280 289 293 285 296 284 283 282 295 296 297 295 295 292 292 291 280 296 296 299 296 298 287 284 295 294 291 283 291 273 270 269
282 285 282 284 282 283 291 281 287 289 290 293 289 276 291 282 292 294 296 298 293 288 291 289 291 292 270 295 296 297 284 281 283 282 295 290 285 288 295 290 292 281 273 275
279 279 283 287 286 278 290 287 289 289 288 280 282 290 293 294 295 294 294 287 290 289 290 294 296 292 296 297 297 296 294 273 296 298 296 289 295 294 295 282 289 286 281 276
279 279 282 282 279 286 280 279 286 283 288 287 288 283 287 289 282 288 292 289 290 293 291 295 298 293 296 298 295 295 297 293 293 293 296 293 291 293 285 285 286 276 278 276
283 284 282 280 283 278 285 285 285 284 284 289 285 281 282 283 289 290 290 284 293 287 288 287 290 293 295 296 292 290 293 287 290 290 291 290 288 287 281 280 280 280 277 269
281 276 281 284 280 284 276 287 284 285 283 285 287 290 287 287 286 284 285 293 293 285 283 284 291 291 287 289 292 291 292 290 286 287 290 288 287 285 285 283 281 274 274 274
291 289 284 295 289 290 284 279 285 289 290 290 288 288 292 292 285 281 282 287 285 287 293 294 291 291 291 290 291 289 288 291 290 289 286 284 284 281 279 278 275 272 271 269
284 288 288 282 291 286 284 278 288 286 291 296 291 289 286 287 287 286 286 284 285 287 292 293 288 291 291 287 287 290 291 288 286 286 285 283 280 279 279 277 271 269 268 266
282 276 286 289 284 288 292 292 281 293 293 291 291 289 286 287 290 290 289 291 288 288 287 289 290 292 290 290 289 288 287 286 286 281 283 282 280 279 278 275 273 272 270 267
284 282 294 288 292 288 290 295 296 293 293 293 288 289 285 291 285 293 290 290 291 291 292 291 289 291 290 290 287 288 282 285 284 284 283 283 280 279 277 275 273 271 270 268
288 293 288 286 296 292 296 296 295 295 295 295 290 293 291 291 291 293 292 294 292 292 293 292 291 288 288 288 288 291 292 291 288 287 285 284 282 281 280 280 280 279 277 273
288 289 289 295 296 293 295 295 295 293 293 291 293 294 294 293 293 293 294 293 293 290 290 289 290 290 291 291 292 292 290 287 287 287 287 286 286 281 287 284 282 283 278 276
290 292 288 293 294 293 293 293 292 292 292 292 292 293 293 289 281 293 291 291 291 291 290 290 291 296 293 293 282 288 286 286 286 283 286 288 288 273 292 288 286 283 281 283